Location: Trebic
(49.2170°N, 15.8830°E)
Time: 00:06:11
(UTC+02:00)

Transit 4A - Pass Details

Date: 23 July 2019
Orbit: 863 x 981 km, 66.8° (Epoch: 24 August)

Event Time Altitude Azimuth Distance (km) Brightness Sun altitude
Exits shadow 03:30:45 13° 247° (WSW) 2,527 9.7 -13.2°
Maximum altitude 03:36:16 45° 317° (NW) 1,311 8.8 -12.7°
Drops below altitude 10° 03:42:25 10° 29° (NNE) 2,738 11.8 -12.1°
Sets 03:45:07 0° 36° (NE) 3,681 13.2 -11.8°
